| time (UTC) | temp F | wind direction | speed MPH | gust MPH | rain 1hr in | rain 24hr in | rain mn in | humidity % | barometer mb |
| 20260906074853 | 87 | 2 | 3.0 | 9.0 | 0.00 | 0.00 | 0.00 | 74 | 1011.0 |
| 20260906074350 | 87 | 233 | 3.0 | 9.0 | 0.00 | 0.00 | 0.00 | 74 | 1011.0 |
| 20260906073849 | 87 | 234 | 4.0 | 9.0 | 0.00 | 0.00 | 0.00 | 74 | 1010.9 |
| 20260906073352 | 87 | 221 | 4.0 | 9.0 | 0.00 | 0.00 | 0.00 | 74 | 1010.9 |
| 20260906072847 | 86 | 191 | 4.0 | 8.0 | 0.00 | 0.00 | 0.00 | 74 | 1011.0 |
| 20260906072338 | 87 | 237 | 3.0 | 8.0 | 0.00 | 0.00 | 0.00 | 74 | 1011.0 |
| 20260906071838 | 87 | 207 | 3.0 | 8.0 | 0.00 | 0.00 | 0.00 | 74 | 1011.1 |
| 20260906071340 | 87 | 211 | 4.0 | 9.0 | 0.00 | 0.00 | 0.00 | 75 | 1011.2 |
| 20260906070825 | 87 | 223 | 3.0 | 9.0 | 0.00 | 0.00 | 0.00 | 75 | 1011.2 |
| 20260906070308 | 87 | 213 | 4.0 | 10.0 | 0.00 | 0.00 | 0.00 | 75 | 1011.0 |
| 20260906065153 | 87 | 223 | 5.0 | 11.0 | 0.00 | 0.00 | 0.00 | 75 | 1011.1 |
| 20260906064651 | 87 | 221 | 6.0 | 11.0 | 0.00 | 0.00 | 0.00 | 75 | 1011.1 |
| 20260906064142 | 87 | 188 | 5.0 | 11.0 | 0.00 | 0.00 | 0.00 | 75 | 1011.0 |
| 20260906063621 | 87 | 227 | 4.0 | 11.0 | 0.00 | 0.00 | 0.00 | 75 | 1011.0 |
| 20260906063108 | 87 | 202 | 5.0 | 11.0 | 0.00 | 0.00 | 0.00 | 75 | 1011.0 |
| 20260906061940 | 87 | 229 | 5.0 | 11.0 | 0.00 | 0.00 | 0.00 | 75 | 1011.0 |
| 20260906061436 | 87 | 233 | 5.0 | 10.0 | 0.00 | 0.00 | 0.00 | 75 | 1011.0 |
| 20260906060303 | 87 | 216 | 5.0 | 10.0 | 0.00 | 0.00 | 0.00 | 74 | 1011.1 |
| 20260906055742 | 87 | 211 | 5.0 | 12.0 | 0.00 | 0.00 | 0.00 | 74 | 1011.1 |
| 20260906054609 | 87 | 212 | 6.0 | 12.0 | 0.00 | 0.00 | 0.00 | 74 | 1011.2 |
| 20260906053438 | 87 | 221 | 6.0 | 11.0 | 0.00 | 0.00 | 0.00 | 75 | 1011.2 |
| 20260906052942 | 87 | 2 | 6.0 | 11.0 | 0.00 | 0.00 | 0.00 | 75 | 1011.3 |
| 20260906052426 | 87 | 211 | 6.0 | 11.0 | 0.00 | 0.00 | 0.00 | 75 | 1011.3 |
| 20260906051909 | 87 | 220 | 6.0 | 11.0 | 0.00 | 0.00 | 0.00 | 76 | 1011.3 |
| 20260906051352 | 87 | 199 | 6.0 | 11.0 | 0.00 | 0.00 | 0.00 | 75 | 1011.3 |
| 20260906050833 | 87 | 173 | 5.0 | 10.0 | 0.00 | 0.00 | 0.00 | 75 | 1011.3 |
| 20260906050313 | 87 | 180 | 5.0 | 10.0 | 0.00 | 0.00 | 0.00 | 75 | 1011.3 |
| 20260906045753 | 87 | 186 | 5.0 | 9.0 | 0.00 | 0.00 | 0.00 | 74 | 1011.3 |
| 20260906045233 | 87 | 203 | 5.0 | 9.0 | 0.00 | 0.00 | 0.00 | 74 | 1011.4 |
| 20260906044741 | 87 | 2 | 5.0 | 9.0 | 0.00 | 0.00 | 0.00 | 74 | 1011.4 |
| 20260906044244 | 87 | 2 | 5.0 | 9.0 | 0.00 | 0.00 | 0.00 | 74 | 1011.4 |
| 20260906043726 | 87 | 189 | 5.0 | 9.0 | 0.00 | 0.00 | 0.00 | 73 | 1011.3 |
| 20260906043232 | 87 | 223 | 6.0 | 9.0 | 0.00 | 0.00 | 0.00 | 73 | 1011.4 |
| 20260906042735 | 87 | 173 | 5.0 | 9.0 | 0.00 | 0.00 | 0.00 | 74 | 1011.4 |
| 20260906041542 | 87 | 2 | 6.0 | 9.0 | 0.00 | 0.00 | 0.00 | 73 | 1011.4 |
| 20260906041041 | 87 | 2 | 5.0 | 9.0 | 0.00 | 0.00 | 0.00 | 74 | 1011.6 |
| 20260906040521 | 87 | 2 | 5.0 | 9.0 | 0.00 | 0.00 | 0.00 | 73 | 1011.5 |
| 20260906040004 | 87 | 192 | 5.0 | 8.0 | 0.00 | 0.00 | 0.00 | 72 | 1011.6 |
| 20260906035449 | 87 | 2 | 5.0 | 8.0 | 0.00 | 0.00 | 0.00 | 73 | 1011.7 |
| 20260906034928 | 87 | 2 | 4.0 | 8.0 | 0.00 | 0.00 | 0.00 | 72 | 1011.7 |
| 20260906033800 | 87 | 191 | 4.0 | 6.0 | 0.00 | 0.00 | 0.00 | 72 | 1011.7 |
| 20260906033247 | 87 | 176 | 4.0 | 6.0 | 0.00 | 0.00 | 0.00 | 72 | 1011.7 |
| 20260906032740 | 87 | 194 | 4.0 | 6.0 | 0.00 | 0.00 | 0.00 | 72 | 1011.7 |
| 20260906032246 | 87 | 2 | 4.0 | 6.0 | 0.00 | 0.00 | 0.00 | 72 | 1011.6 |
| 20260906031742 | 87 | 151 | 4.0 | 6.0 | 0.00 | 0.00 | 0.00 | 72 | 1011.5 |
| 20260906030602 | 87 | 180 | 3.0 | 6.0 | 0.00 | 0.00 | 0.00 | 72 | 1011.6 |
| 20260906025438 | 87 | 193 | 3.0 | 5.0 | 0.00 | 0.00 | 0.00 | 72 | 1011.5 |
| 20260906024936 | 87 | 176 | 2.0 | 6.0 | 0.00 | 0.00 | 0.00 | 72 | 1011.6 |
| 20260906024432 | 87 | 177 | 2.0 | 6.0 | 0.00 | 0.00 | 0.00 | 73 | 1011.6 |
| 20260906023922 | 87 | 103 | 2.0 | 6.0 | 0.00 | 0.00 | 0.00 | 72 | 1011.3 |
| 20260906023414 | 87 | 160 | 2.0 | 6.0 | 0.00 | 0.00 | 0.00 | 72 | 1011.2 |
| 20260906022309 | 87 | 152 | 1.0 | 4.0 | 0.00 | 0.00 | 0.00 | 72 | 1011.1 |
| 20260906021756 | 87 | 109 | 0.0 | 4.0 | 0.00 | 0.00 | 0.00 | 72 | 1010.9 |
| 20260906021248 | 87 | 136 | 0.0 | 4.0 | 0.00 | 0.00 | 0.00 | 72 | 1010.8 |
| 20260906020124 | 87 | 148 | 1.0 | 4.0 | 0.00 | 0.00 | 0.00 | 72 | 1010.6 |
| 20260906014945 | 87 | 156 | 2.0 | 5.0 | 0.00 | 0.00 | 0.00 | 72 | 1010.5 |
| 20260906014443 | 87 | 140 | 3.0 | 5.0 | 0.00 | 0.00 | 0.00 | 72 | 1010.4 |
| 20260906013930 | 87 | 133 | 2.0 | 5.0 | 0.00 | 0.00 | 0.00 | 72 | 1010.6 |
| 20260906013411 | 87 | 164 | 1.0 | 5.0 | 0.00 | 0.00 | 0.00 | 72 | 1010.4 |
| 20260906012902 | 87 | 134 | 2.0 | 5.0 | 0.00 | 0.00 | 0.00 | 72 | 1010.4 |
| 20260906012347 | 87 | 161 | 1.0 | 5.0 | 0.00 | 0.00 | 0.00 | 72 | 1010.4 |
| 20260906011845 | 87 | 103 | 1.0 | 4.0 | 0.00 | 0.00 | 0.00 | 72 | 1010.4 |
| 20260906010716 | 87 | 109 | 1.0 | 2.0 | 0.00 | 0.00 | 0.00 | 72 | 1010.5 |
| 20260906010222 | 87 | 126 | 0.0 | 4.0 | 0.00 | 0.00 | 0.00 | 72 | 1010.5 |
| 20260906005726 | 87 | 92 | 1.0 | 4.0 | 0.00 | 0.00 | 0.00 | 72 | 1010.4 |
| 20260906004556 | 87 | 113 | 2.0 | 4.0 | 0.00 | 0.00 | 0.00 | 72 | 1010.7 |
| 20260906004033 | 88 | 140 | 2.0 | 4.0 | 0.00 | 0.00 | 0.00 | 72 | 1010.6 |
| 20260906003524 | 88 | 188 | 1.0 | 4.0 | 0.00 | 0.00 | 0.00 | 72 | 1010.6 |
| 20260906003020 | 88 | 173 | 1.0 | 4.0 | 0.00 | 0.00 | 0.00 | 72 | 1010.7 |
| 20260906002520 | 88 | 165 | 1.0 | 4.0 | 0.00 | 0.00 | 0.00 | 72 | 1010.7 |
| 20260906002003 | 88 | 142 | 2.0 | 4.0 | 0.00 | 0.00 | 0.00 | 72 | 1011.0 |
| 20260906001447 | 88 | 140 | 2.0 | 4.0 | 0.00 | 0.00 | 0.00 | 72 | 1010.9 |
| 20260906000931 | 88 | 112 | 2.0 | 4.0 | 0.00 | 0.00 | 0.00 | 72 | 1010.9 |
| 20260906000433 | 88 | 154 | 2.0 | 6.0 | 0.00 | 0.00 | 0.00 | 72 | 1010.9 |
| 20260905235932 | 88 | 111 | 2.0 | 6.0 | 0.00 | 0.00 | 0.00 | 72 | 1010.9 |
| 20260905235420 | 88 | 121 | 3.0 | 6.0 | 0.00 | 0.00 | 0.00 | 72 | 1010.8 |
| 20260905234917 | 88 | 150 | 3.0 | 6.0 | 0.00 | 0.00 | 0.00 | 71 | 1010.7 |
| 20260905234417 | 89 | 121 | 3.0 | 5.0 | 0.00 | 0.00 | 0.00 | 71 | 1010.8 |
| 20260905233906 | 89 | 190 | 2.0 | 5.0 | 0.00 | 0.00 | 0.00 | 71 | 1010.7 |
| 20260905233400 | 89 | 140 | 2.0 | 4.0 | 0.00 | 0.00 | 0.00 | 71 | 1010.9 |
| 20260905232838 | 89 | 88 | 1.0 | 5.0 | 0.00 | 0.00 | 0.00 | 71 | 1011.0 |
| 20260905232335 | 89 | 41 | 1.0 | 5.0 | 0.00 | 0.00 | 0.00 | 71 | 1010.9 |
| 20260905231841 | 89 | 109 | 2.0 | 6.0 | 0.00 | 0.00 | 0.00 | 71 | 1011.0 |
| 20260905230034 | 89 | 91 | 1.0 | 5.0 | 0.00 | 0.00 | 0.00 | 70 | 1010.9 |
| 20260905224901 | 89 | 157 | 2.0 | 6.0 | 0.00 | 0.00 | 0.00 | 70 | 1010.6 |
| 20260905224407 | 89 | 170 | 3.0 | 6.0 | 0.00 | 0.00 | 0.00 | 70 | 1010.7 |
| 20260905223905 | 89 | 118 | 2.0 | 6.0 | 0.00 | 0.00 | 0.00 | 70 | 1010.6 |
| 20260905222709 | 90 | 166 | 3.0 | 6.0 | 0.00 | 0.00 | 0.00 | 69 | 1010.9 |
| 20260905222205 | 90 | 200 | 2.0 | 6.0 | 0.00 | 0.00 | 0.00 | 69 | 1010.8 |
| 20260905220405 | 90 | 184 | 1.0 | 4.0 | 0.00 | 0.00 | 0.00 | 69 | 1010.9 |
| 20260905215900 | 90 | 106 | 1.0 | 5.0 | 0.00 | 0.00 | 0.00 | 69 | 1011.0 |
| 20260905215350 | 90 | 159 | 1.0 | 5.0 | 0.00 | 0.00 | 0.00 | 69 | 1011.1 |
| 20260905214845 | 90 | 130 | 2.0 | 5.0 | 0.00 | 0.00 | 0.00 | 69 | 1011.1 |
| 20260905214331 | 90 | 142 | 2.0 | 5.0 | 0.00 | 0.00 | 0.00 | 68 | 1011.1 |
| 20260905213219 | 91 | 192 | 2.0 | 5.0 | 0.00 | 0.00 | 0.00 | 68 | 1010.9 |
| 20260905212705 | 91 | 186 | 3.0 | 5.0 | 0.00 | 0.00 | 0.00 | 67 | 1011.0 |
| 20260905212203 | 91 | 113 | 2.0 | 5.0 | 0.00 | 0.00 | 0.00 | 66 | 1011.1 |
| 20260905211701 | 92 | 180 | 2.0 | 5.0 | 0.00 | 0.00 | 0.00 | 65 | 1011.1 |
| 20260905211205 | 92 | 146 | 2.0 | 5.0 | 0.00 | 0.00 | 0.00 | 64 | 1011.2 |
| 20260905210702 | 93 | 107 | 2.0 | 6.0 | 0.00 | 0.00 | 0.00 | 64 | 1011.2 |
| 20260905210204 | 93 | 163 | 2.0 | 6.0 | 0.00 | 0.00 | 0.00 | 63 | 1011.1 |
| 20260905205710 | 94 | 172 | 3.0 | 6.0 | 0.00 | 0.00 | 0.00 | 64 | 1011.3 |
| 20260905204543 | 94 | 162 | 2.0 | 6.0 | 0.00 | 0.00 | 0.00 | 63 | 1011.4 |
| 20260905203417 | 93 | 107 | 2.0 | 5.0 | 0.00 | 0.00 | 0.00 | 63 | 1011.4 |
| 20260905202923 | 93 | 172 | 3.0 | 5.0 | 0.00 | 0.00 | 0.00 | 65 | 1011.4 |
| 20260905202428 | 92 | 134 | 3.0 | 6.0 | 0.00 | 0.00 | 0.00 | 64 | 1011.7 |
| 20260905201912 | 92 | 166 | 4.0 | 6.0 | 0.00 | 0.00 | 0.00 | 63 | 1011.6 |
| 20260905201353 | 93 | 185 | 0.0 | 6.0 | 0.00 | 0.00 | 0.00 | 63 | 1011.6 |
| 20260905200836 | 93 | 161 | 3.0 | 6.0 | 0.00 | 0.00 | 0.00 | 63 | 1011.7 |
| 20260905200315 | 93 | 183 | 3.0 | 6.0 | 0.00 | 0.00 | 0.00 | 63 | 1011.8 |
| 20260905195818 | 93 | 172 | 3.0 | 6.0 | 0.00 | 0.00 | 0.00 | 63 | 1011.6 |
| 20260905195313 | 93 | 138 | 3.0 | 5.0 | 0.00 | 0.00 | 0.00 | 62 | 1011.7 |
| 20260905194805 | 93 | 180 | 3.0 | 5.0 | 0.00 | 0.00 | 0.00 | 62 | 1011.7 |
| 20260905194244 | 93 | 183 | 2.0 | 5.0 | 0.00 | 0.00 | 0.00 | 61 | 1011.7 |
| 20260905193745 | 93 | 150 | 1.0 | 4.0 | 0.00 | 0.00 | 0.00 | 60 | 1011.8 |
| 20260905193223 | 93 | 208 | 2.0 | 4.0 | 0.00 | 0.00 | 0.00 | 61 | 1011.8 |
| 20260905192711 | 93 | 163 | 1.0 | 4.0 | 0.00 | 0.00 | 0.00 | 61 | 1011.9 |
| 20260905192206 | 94 | 123 | 1.0 | 5.0 | 0.00 | 0.00 | 0.00 | 60 | 1012.0 |
| 20260905191700 | 94 | 168 | 2.0 | 5.0 | 0.00 | 0.00 | 0.00 | 60 | 1012.2 |
| 20260905191201 | 94 | 105 | 1.0 | 5.0 | 0.00 | 0.00 | 0.00 | 60 | 1012.3 |
| 20260905190640 | 94 | 112 | 1.0 | 5.0 | 0.00 | 0.00 | 0.00 | 59 | 1012.4 |
| 20260905190146 | 94 | 125 | 1.0 | 3.0 | 0.00 | 0.00 | 0.00 | 58 | 1012.4 |
| 20260905185632 | 94 | 163 | 1.0 | 4.0 | 0.00 | 0.00 | 0.00 | 59 | 1012.6 |
| 20260905185132 | 94 | 167 | 1.0 | 4.0 | 0.00 | 0.00 | 0.00 | 59 | 1012.5 |
| 20260905184626 | 95 | 107 | 1.0 | 4.0 | 0.00 | 0.00 | 0.00 | 59 | 1012.6 |
| 20260905184110 | 94 | 157 | 1.0 | 4.0 | 0.00 | 0.00 | 0.00 | 60 | 1012.7 |
| 20260905183559 | 94 | 198 | 1.0 | 4.0 | 0.00 | 0.00 | 0.00 | 60 | 1012.7 |
| 20260905183050 | 94 | 182 | 1.0 | 4.0 | 0.00 | 0.00 | 0.00 | 61 | 1012.7 |
| 20260905182538 | 94 | 169 | 1.0 | 3.0 | 0.00 | 0.00 | 0.00 | 61 | 1012.8 |
| 20260905181401 | 94 | 199 | 1.0 | 3.0 | 0.00 | 0.00 | 0.00 | 61 | 1013.0 |
| 20260905175618 | 92 | 112 | 1.0 | 3.0 | 0.00 | 0.00 | 0.00 | 65 | 1013.1 |
| 20260905175057 | 91 | 137 | 1.0 | 4.0 | 0.00 | 0.00 | 0.00 | 65 | 1013.2 |
| 20260905173926 | 90 | 192 | 2.0 | 5.0 | 0.00 | 0.00 | 0.00 | 67 | 1013.5 |
| 20260905172127 | 89 | 88 | 4.0 | 9.0 | 0.00 | 0.00 | 0.00 | 69 | 1013.7 |
| 20260905171619 | 89 | 98 | 4.0 | 9.0 | 0.00 | 0.00 | 0.00 | 69 | 1013.6 |
| 20260905171115 | 90 | 96 | 4.0 | 6.0 | 0.00 | 0.00 | 0.00 | 70 | 1013.5 |
| 20260905165946 | 89 | 92 | 4.0 | 7.0 | 0.00 | 0.00 | 0.00 | 70 | 1013.6 |
| 20260905165424 | 89 | 88 | 4.0 | 8.0 | 0.00 | 0.00 | 0.00 | 70 | 1013.7 |
| 20260905164924 | 89 | 92 | 5.0 | 8.0 | 0.00 | 0.00 | 0.00 | 70 | 1013.7 |
| 20260905164408 | 89 | 73 | 5.0 | 10.0 | 0.00 | 0.00 | 0.00 | 70 | 1013.6 |
| 20260905163903 | 89 | 87 | 5.0 | 10.0 | 0.00 | 0.00 | 0.00 | 70 | 1013.5 |
| 20260905163349 | 89 | 107 | 5.0 | 10.0 | 0.00 | 0.00 | 0.00 | 70 | 1013.5 |
| 20260905162157 | 89 | 102 | 7.0 | 10.0 | 0.00 | 0.00 | 0.00 | 69 | 1013.6 |
| 20260905161004 | 90 | 100 | 4.0 | 8.0 | 0.00 | 0.00 | 0.00 | 67 | 1013.6 |
| 20260905160459 | 91 | 99 | 5.0 | 8.0 | 0.00 | 0.00 | 0.00 | 65 | 1013.7 |
| 20260905155955 | 92 | 88 | 3.0 | 8.0 | 0.00 | 0.00 | 0.00 | 63 | 1013.6 |
| 20260905154805 | 93 | 331 | 1.0 | 4.0 | 0.00 | 0.00 | 0.00 | 63 | 1013.5 |
| 20260905154252 | 92 | 231 | 1.0 | 4.0 | 0.00 | 0.00 | 0.00 | 64 | 1013.6 |
| 20260905153744 | 91 | 171 | 0.0 | 3.0 | 0.00 | 0.00 | 0.00 | 66 | 1013.5 |
| 20260905153242 | 89 | 175 | 1.0 | 8.0 | 0.00 | 0.00 | 0.00 | 68 | 1013.5 |
| 20260905152746 | 88 | 357 | 2.0 | 8.0 | 0.00 | 0.00 | 0.00 | 66 | 1013.4 |
| 20260905152223 | 87 | 325 | 3.0 | 8.0 | 0.00 | 0.01 | 0.00 | 67 | 1013.5 |
| 20260905151717 | 87 | 318 | 4.0 | 8.0 | 0.00 | 0.05 | 0.00 | 67 | 1013.5 |
| 20260905151217 | 86 | 286 | 2.0 | 6.0 | 0.00 | 0.16 | 0.00 | 69 | 1013.5 |
| 20260905150058 | 86 | 322 | 2.0 | 6.0 | 0.00 | 0.36 | 0.00 | 71 | 1013.3 |
| 20260905145544 | 85 | 300 | 2.0 | 4.0 | 0.00 | 0.46 | 0.00 | 71 | 1013.2 |
| 20260905145032 | 85 | 315 | 1.0 | 3.0 | 0.00 | 0.67 | 0.00 | 71 | 1013.4 |
| 20260905144520 | 84 | 296 | 1.0 | 5.0 | 0.00 | 0.90 | 0.00 | 72 | 1013.5 |
| 20260905144004 | 84 | 280 | 2.0 | 5.0 | 0.00 | 0.96 | 0.00 | 72 | 1013.5 |
| 20260905143500 | 84 | 252 | 3.0 | 8.0 | 0.00 | 0.96 | 0.00 | 72 | 1013.6 |
| 20260905142339 | 84 | 234 | 3.0 | 9.0 | 0.00 | 0.97 | 0.00 | 71 | 1013.5 |
| 20260905141225 | 85 | 236 | 4.0 | 11.0 | 0.00 | 1.00 | 0.00 | 71 | 1013.4 |
| 20260905140713 | 85 | 236 | 5.0 | 11.0 | 0.00 | 1.00 | 0.00 | 70 | 1013.5 |
| 20260905135538 | 87 | 234 | 3.0 | 9.0 | 0.00 | 1.00 | 0.00 | 71 | 1013.2 |
| 20260905134424 | 88 | 2 | 1.0 | 5.0 | 0.00 | 1.00 | 0.00 | 75 | 1013.0 |
| 20260905133903 | 88 | 2 | 2.0 | 5.0 | 0.00 | 1.00 | 0.00 | 76 | 1012.8 |
| 20260905133403 | 87 | 299 | 1.0 | 5.0 | 0.00 | 1.00 | 0.00 | 77 | 1012.8 |
| 20260905132903 | 87 | 344 | 1.0 | 5.0 | 0.00 | 1.00 | 0.00 | 77 | 1012.9 |
| 20260905132352 | 87 | 352 | 2.0 | 5.0 | 0.00 | 1.00 | 0.00 | 78 | 1012.9 |
| 20260905131857 | 86 | 339 | 2.0 | 5.0 | 0.00 | 1.00 | 0.00 | 78 | 1012.8 |
| 20260905130720 | 86 | 357 | 2.0 | 5.0 | 0.00 | 1.00 | 0.00 | 80 | 1012.8 |
| 20260905130207 | 86 | 357 | 2.0 | 5.0 | 0.00 | 1.00 | 0.00 | 80 | 1012.7 |
| 20260905125700 | 86 | 30 | 2.0 | 5.0 | 0.00 | 1.00 | 0.00 | 80 | 1012.7 |
| 20260905125147 | 85 | 352 | 1.0 | 3.0 | 0.00 | 1.00 | 0.00 | 80 | 1012.7 |
| 20260905124639 | 85 | 2 | 1.0 | 3.0 | 0.00 | 1.01 | 0.00 | 80 | 1012.6 |
| 20260905124119 | 85 | 357 | 1.0 | 3.0 | 0.00 | 1.01 | 0.00 | 80 | 1012.5 |
| 20260905122938 | 85 | 357 | 1.0 | 3.0 | 0.00 | 1.01 | 0.00 | 80 | 1012.2 |
| 20260905122429 | 85 | 2 | 1.0 | 3.0 | 0.00 | 1.01 | 0.00 | 79 | 1012.2 |
| 20260905121929 | 85 | 357 | 1.0 | 2.0 | 0.00 | 1.01 | 0.00 | 79 | 1012.3 |
| 20260905121410 | 85 | 357 | 0.0 | 2.0 | 0.00 | 1.01 | 0.00 | 79 | 1012.2 |
| 20260905120909 | 85 | 357 | 0.0 | 1.0 | 0.00 | 1.01 | 0.00 | 78 | 1012.0 |
| 20260905120411 | 85 | 357 | 0.0 | 0.0 | 0.00 | 1.01 | 0.00 | 78 | 1012.0 |
| 20260905115901 | 85 | 346 | 0.0 | 0.0 | 0.00 | 1.01 | 0.00 | 78 | 1012.0 |
| 20260905115358 | 85 | 352 | 0.0 | 1.0 | 0.00 | 1.01 | 0.00 | 77 | 1011.8 |
| 20260905114905 | 85 | 331 | 0.0 | 0.0 | 0.00 | 1.01 | 0.00 | 77 | 1011.8 |
| 20260905113713 | 85 | 303 | 0.0 | 0.0 | 0.00 | 1.01 | 0.00 | 76 | 1011.7 |
| 20260905113204 | 85 | 301 | 0.0 | 0.0 | 0.00 | 1.01 | 0.00 | 76 | 1011.6 |
| 20260905112642 | 85 | 271 | 0.0 | 0.0 | 0.00 | 1.01 | 0.00 | 75 | 1011.5 |
| 20260905112132 | 85 | 277 | 0.0 | 0.0 | 0.00 | 1.01 | 0.00 | 75 | 1011.6 |
| 20260905111629 | 85 | 279 | 0.0 | 0.0 | 0.00 | 1.01 | 0.00 | 75 | 1011.5 |
| 20260905111110 | 86 | 288 | 0.0 | 0.0 | 0.00 | 1.01 | 0.00 | 74 | 1011.4 |
| 20260905110616 | 86 | 290 | 0.0 | 0.0 | 0.00 | 1.01 | 0.00 | 74 | 1011.4 |
| 20260905110117 | 86 | 267 | 0.0 | 0.0 | 0.00 | 1.01 | 0.00 | 74 | 1011.2 |
| 20260905105611 | 86 | 289 | 0.0 | 0.0 | 0.00 | 1.01 | 0.00 | 74 | 1011.3 |
| 20260905105105 | 86 | 275 | 0.0 | 0.0 | 0.00 | 1.01 | 0.00 | 73 | 1011.2 |
| 20260905104556 | 86 | 288 | 0.0 | 0.0 | 0.00 | 1.01 | 0.00 | 73 | 1011.3 |
| 20260905104037 | 86 | 237 | 0.0 | 3.0 | 0.00 | 1.01 | 0.00 | 73 | 1011.3 |
| 20260905103531 | 87 | 238 | 0.0 | 3.0 | 0.00 | 1.01 | 0.00 | 73 | 1011.3 |
| 20260905103032 | 87 | 250 | 1.0 | 3.0 | 0.00 | 1.01 | 0.00 | 73 | 1011.3 |
| 20260905102534 | 87 | 224 | 1.0 | 3.0 | 0.00 | 1.01 | 0.00 | 73 | 1011.3 |
| 20260905102020 | 87 | 205 | 1.0 | 5.0 | 0.00 | 1.01 | 0.00 | 73 | 1011.3 |
| 20260905101501 | 87 | 244 | 2.0 | 5.0 | 0.00 | 1.01 | 0.00 | 73 | 1011.2 |
| 20260905100952 | 87 | 227 | 3.0 | 6.0 | 0.00 | 1.01 | 0.00 | 73 | 1011.2 |
| 20260905100446 | 87 | 219 | 3.0 | 6.0 | 0.00 | 1.01 | 0.00 | 73 | 1011.2 |
| 20260905095253 | 87 | 216 | 3.0 | 7.0 | 0.00 | 1.01 | 0.00 | 73 | 1011.4 |
| 20260905094755 | 87 | 204 | 3.0 | 9.0 | 0.00 | 1.01 | 0.00 | 74 | 1011.4 |
| 20260905094233 | 87 | 202 | 3.0 | 9.0 | 0.00 | 1.01 | 0.00 | 74 | 1011.3 |
| 20260905093736 | 87 | 206 | 3.0 | 9.0 | 0.00 | 1.01 | 0.00 | 74 | 1011.2 |
| 20260905092610 | 87 | 200 | 3.0 | 9.0 | 0.00 | 1.01 | 0.00 | 74 | 1011.2 |
| 20260905092109 | 87 | 211 | 3.0 | 8.0 | 0.00 | 1.01 | 0.00 | 74 | 1011.2 |
| 20260905090933 | 87 | 240 | 3.0 | 6.0 | 0.00 | 1.01 | 0.00 | 74 | 1011.4 |
| 20260905090421 | 87 | 222 | 3.0 | 6.0 | 0.00 | 1.01 | 0.00 | 74 | 1011.3 |
| 20260905085924 | 87 | 207 | 3.0 | 8.0 | 0.00 | 1.01 | 0.00 | 74 | 1011.3 |
| 20260905085407 | 87 | 220 | 3.0 | 8.0 | 0.00 | 1.01 | 0.00 | 74 | 1011.2 |
| 20260905084912 | 87 | 196 | 4.0 | 9.0 | 0.00 | 1.01 | 0.00 | 73 | 1011.1 |
| 20260905084356 | 87 | 2 | 4.0 | 9.0 | 0.00 | 1.01 | 0.00 | 74 | 1011.1 |
| 20260905083851 | 87 | 2 | 4.0 | 9.0 | 0.00 | 1.01 | 0.00 | 74 | 1011.0 |
| 20260905083331 | 87 | 2 | 5.0 | 9.0 | 0.00 | 1.01 | 0.00 | 74 | 1011.1 |
| 20260905082149 | 87 | 2 | 4.0 | 8.0 | 0.00 | 1.01 | 0.00 | 73 | 1011.1 |
| 20260905081653 | 87 | 2 | 4.0 | 9.0 | 0.00 | 1.01 | 0.00 | 73 | 1011.2 |
| 20260905081154 | 87 | 188 | 4.0 | 9.0 | 0.00 | 1.01 | 0.00 | 73 | 1011.2 |
| 20260905080658 | 87 | 188 | 4.0 | 9.0 | 0.00 | 1.01 | 0.00 | 73 | 1011.2 |
| 20260905080147 | 87 | 2 | 4.0 | 9.0 | 0.00 | 1.01 | 0.00 | 72 | 1011.2 |
| 20260905075655 | 87 | 188 | 4.0 | 6.0 | 0.00 | 1.01 | 0.00 | 72 | 1011.3 |